Location: Chester
(43.2628°N, 72.5951°W)
Time: 00:46:12
(UTC-04:00)

ISS - Visible Passes

Search period start: 24 September 2017 00:00
Search period end: 04 October 2017 00:00
Orbit: 401 x 407 km, 51.6° (Epoch: 24 September)

Date Brightness Start Highest point End Pass type
(mag) Time Alt. Az. Time Alt. Az. Time Alt. Az.
24 Sep -1.5 20:46:06 10° SW 20:47:03 18° SW 20:47:03 18° SW visible
25 Sep -3.1 19:54:09 10° SSW 19:57:07 32° SE 19:57:36 31° ESE visible
26 Sep -3.0 20:37:54 10° WSW 20:40:37 51° WNW 20:40:37 51° WNW visible
27 Sep -3.9 19:45:31 10° SW 19:48:47 77° SE 19:50:45 22° ENE visible
27 Sep -0.6 21:22:44 10° WNW 21:23:25 14° WNW 21:23:25 14° WNW visible
28 Sep -2.4 20:30:00 10° W 20:33:01 33° NNW 20:33:23 32° N visible
29 Sep -3.1 19:37:20 10° WSW 19:40:33 51° NNW 19:43:14 14° NE visible
29 Sep -0.6 21:15:02 10° WNW 21:15:54 14° NW 21:15:54 14° NW visible
30 Sep -1.9 20:22:14 10° WNW 20:24:57 23° NNW 20:25:38 22° N visible
01 Oct -2.2 19:29:25 10° W 19:32:22 30° NNW 19:35:18 10° NE visible
01 Oct -0.7 21:07:09 10° NW 21:07:57 14° NW 21:07:57 14° NW visible
02 Oct -1.7 20:14:26 10° NW 20:16:54 19° N 20:17:34 18° N visible
03 Oct -1.8 19:21:37 10° WNW 19:24:14 22° NNW 19:26:53 10° NE visible
03 Oct -0.8 20:58:59 10° NW 20:59:47 14° NNW 20:59:47 14° NNW visible
